Trenton, NJ

5:09 PM EDT on August 26, 2016 (GMT -0400)
Trenton Mercer

Weather History for KTTN - June, 2012

Change the Weather History Date:

Friday, June 22, 2012

  Actual Average Record
Temperature  
Mean Temperature 81 °F 72 °F  
Max Temperature 91 °F 83 °F 99 °F (1988)
Min Temperature 70 °F 62 °F 47 °F (1992)
Degree Days  
Heating Degree Days 0 0  
Month to date heating degree days 22 22  
Since 1 June heating degree days 22 22  
Since 1 July heating degree days 3676 5158  
Cooling Degree Days 16 8  
Month to date cooling degree days 117 121  
Year to date cooling degree days 273 178  
Since 1 June cooling degree days 117 121  
Growing Degree Days 31 (Base 50)    
Moisture  
Dew Point 70 °F    
Average Humidity 70    
Maximum Humidity 93    
Minimum Humidity 47    
Precipitation  
Precipitation 0.46 in 0.12 in 2.20 in (1996)
Month to date precipitation 2.32 3.37  
Year to date precipitation 16.20 20.89  
Sea Level Pressure  
Sea Level Pressure 29.79 in    
Wind  
Wind Speed 4 mph (NW)    
Max Wind Speed 6 mph    
Max Gust Speed 7 mph    
Visibility 6 miles    
Events Rain , Thunderstorm    
T = Trace of Precipitation, MM = Missing Value Source: NWS Daily Summary

Daily Weather History Graph

Daily Weather History Graph

Search for Another Location

Airport or City:

Trip Planner

Search our weather history database for the weather conditions in past years. The results will help you decide how hot, cold, wet, or windy it might be!

Date:

Astronomy

Jun. 22, 2012 Rise Set
Actual Time 5:30 AM EDT 8:32 PM EDT
Civil Twilight 4:56 AM EDT 9:05 PM EDT
Nautical Twilight 4:14 AM EDT 9:47 PM EDT
Astronomical Twilight 3:25 AM EDT 10:37 PM EDT
Moon 8:27 AM EDT (6/22) 10:27 PM EDT (6/22)
Length of Visible Light 16h 08m
Length of Day
15h 02m
Waxing Crescent, 9% of the Moon is Illuminated
Jun 22
Waxing Crescent
Jun 26
First Quarter
Jul 3
Full
Jul 10
Last Quarter
Jul 19
New

Hourly Weather History & Observations

Time (EDT) Temp. Heat Index Dew Point Humidity Pressure Visibility Wind Dir Wind Speed Gust Speed Precip Events Conditions
12:53 AM 81.0 °F 84.1 °F 69.1 °F 67% 29.79 in 8.0 mi Calm Calm - N/A   Clear
1:53 AM 80.1 °F 82.9 °F 69.1 °F 69% 29.78 in 8.0 mi Calm Calm - N/A   Clear
2:53 AM 80.1 °F 83.2 °F 70.0 °F 71% 29.78 in 8.0 mi WNW 3.5 mph - N/A   Clear
3:53 AM 80.1 °F 83.2 °F 70.0 °F 71% 29.77 in 7.0 mi NNW 3.5 mph - N/A   Clear
4:53 AM 79.0 °F - 70.0 °F 74% 29.77 in 7.0 mi Calm Calm - N/A   Partly Cloudy
5:53 AM 78.1 °F - 70.0 °F 76% 29.77 in 5.0 mi Calm Calm - N/A   Haze
6:53 AM 78.1 °F - 71.1 °F 79% 29.78 in 5.0 mi Calm Calm - N/A   Haze
7:53 AM 82.0 °F 86.3 °F 71.1 °F 69% 29.78 in 5.0 mi WNW 3.5 mph - N/A   Haze
8:53 AM 84.0 °F 88.4 °F 70.0 °F 63% 29.78 in 6.0 mi NNW 3.5 mph - N/A   Haze
9:53 AM 84.0 °F 88.4 °F 70.0 °F 63% 29.78 in 6.0 mi NNW 4.6 mph - N/A   Haze
10:53 AM 87.1 °F 92.0 °F 70.0 °F 57% 29.78 in 7.0 mi NNW 4.6 mph - N/A   Clear
11:53 AM 88.0 °F 92.1 °F 69.1 °F 53% 29.78 in 7.0 mi Calm Calm - N/A   Clear
12:53 PM 90.0 °F 96.9 °F 72.0 °F 55% 29.77 in 7.0 mi North 10.4 mph - N/A   Clear
1:53 PM 91.0 °F 96.6 °F 70.0 °F 50% 29.76 in 8.0 mi North 10.4 mph - N/A   Clear
2:53 PM 91.0 °F 95.2 °F 68.0 °F 47% 29.74 in 9.0 mi NNE 5.8 mph - N/A   Clear
3:17 PM 82.4 °F 86.3 °F 69.8 °F 66% 29.76 in 9.0 mi SSE 13.8 mph - N/A   Clear
3:53 PM 84.0 °F 87.8 °F 69.1 °F 61% 29.75 in 9.0 mi SSE 8.1 mph - N/A   Clear
4:53 PM 81.0 °F 83.8 °F 68.0 °F 65% 29.74 in 9.0 mi SSW 6.9 mph - N/A   Scattered Clouds
5:18 PM 78.8 °F - 69.8 °F 74% 29.75 in 2.0 mi South 10.4 mph - 0.06 in Rain Light Rain
5:28 PM 80.6 °F 84.6 °F 71.6 °F 74% 29.75 in 4.0 mi South 9.2 mph - 0.08 in Rain Light Rain
5:53 PM 78.1 °F - 71.1 °F 79% 29.75 in 8.0 mi North 11.5 mph - 0.08 in   Mostly Cloudy
6:21 PM 78.8 °F - 71.6 °F 78% 29.80 in 6.0 mi NE 5.8 mph - 0.01 in Rain , Thunderstorm Light Thunderstorms and Rain
6:27 PM 77.0 °F - 71.6 °F 83% 29.81 in 1.8 mi North 8.1 mph - 0.08 in Rain , Thunderstorm Heavy Thunderstorms and Rain
6:46 PM 73.4 °F - 69.8 °F 88% 29.81 in 2.5 mi ESE 5.8 mph - 0.22 in Rain , Thunderstorm Heavy Thunderstorms and Rain
6:53 PM 73.0 °F - 68.0 °F 84% 29.78 in 4.0 mi SE 4.6 mph - 0.24 in Rain , Thunderstorm Thunderstorms and Rain
7:48 PM 71.6 °F - 69.8 °F 94% 29.82 in 0.8 mi Calm Calm - 0.02 in Rain , Thunderstorm Light Thunderstorms and Rain
7:53 PM 72.0 °F - 70.0 °F 93% 29.79 in 0.8 mi Calm Calm - 0.02 in Rain , Thunderstorm Light Thunderstorms and Rain
7:58 PM 73.4 °F - 69.8 °F 88% 29.81 in 3.0 mi Calm Calm - 0.00 in Rain , Thunderstorm Light Thunderstorms and Rain
8:53 PM 71.1 °F - 69.1 °F 93% 29.81 in 6.0 mi Calm Calm - 0.04 in Rain , Thunderstorm Light Thunderstorms and Rain
9:12 PM 71.6 °F - 69.8 °F 94% 29.83 in 5.0 mi West 3.5 mph - 0.01 in   Mostly Cloudy
9:18 PM - - - N/A% - - West 4.6 mph - 0.02 in Rain Light Rain
9:53 PM 71.1 °F - 70.0 °F 96% 29.81 in 4.0 mi West 4.6 mph - 0.04 in Rain Light Rain
10:21 PM 71.6 °F - 69.8 °F 94% 29.83 in 4.0 mi SSW 4.6 mph - 0.01 in Rain , Thunderstorm Light Rain
10:36 PM 71.6 °F - 69.8 °F 94% 29.83 in 4.0 mi South 4.6 mph - 0.02 in Rain Light Rain
10:53 PM 71.1 °F - 70.0 °F 96% 29.81 in 4.0 mi Calm Calm - 0.04 in Rain Light Rain
11:02 PM 71.6 °F - 69.8 °F 94% 29.84 in 4.0 mi Calm Calm - 0.00 in Rain Light Rain
11:53 PM 71.1 °F - 69.1 °F 93% 29.81 in 4.0 mi Calm Calm - 0.00 in   Partly Cloudy